When you browse on this site, cookies collect data to enhance your experience and personalize the content and advertising you see.
Visit our Privacy Policy to learn more. By continuing to use the site, you agree to this use of cookies and data.

Hourly Weather Banfora

Today, 22 September, Tuesday

Time Temperature Precipitation Wind Pressure Humidity
00:00 +26°C° 0 mm 1 mps 734 mmHg 93%
01:00 +25°C° 1.2 mm 1 mps 734 mmHg 95%
02:00 +25°C° 1.2 mm 1 mps 733 mmHg 96%
03:00 +24°C° 1.2 mm 1 mps 733 mmHg 98%
04:00 +24°C° 0 mm 1 mps 733 mmHg 98%
05:00 +24°C° 0 mm 1 mps 733 mmHg 98%
06:00 +24°C° 0 mm 1 mps 734 mmHg 98%
07:00 +25°C° 0 mm 1 mps 734 mmHg 95%
08:00 +26°C° 0 mm 1 mps 734 mmHg 92%
09:00 +27°C° 0 mm 1 mps 735 mmHg 89%
10:00 +29°C° 0.8 mm 1 mps 735 mmHg 83%
11:00 +30°C° 0.8 mm 1 mps 735 mmHg 77%
12:00 +31°C° 0.8 mm 1 mps 735 mmHg 71%
13:00 +32°C° 0.2 mm 1 mps 734 mmHg 66%
14:00 +33°C° 0.2 mm 1 mps 733 mmHg 60%
15:00 +31°C° 0.2 mm 0 mps 732 mmHg 55%
16:00 +30°C° 0 mm 0 mps 732 mmHg 60%
17:00 +28°C° 0 mm 0 mps 732 mmHg 66%
18:00 +27°C° 0 mm 0 mps 732 mmHg 71%
19:00 +26°C° 0 mm 0 mps 732 mmHg 72%
20:00 +26°C° 0 mm 0 mps 733 mmHg 72%
21:00 +25°C° 0 mm 0 mps 734 mmHg 73%
22:00 +25°C° 0 mm 0 mps 734 mmHg 74%
23:00 +25°C° 0 mm 0 mps 734 mmHg 76%

Tomorrow, 23 September, Wednesday

Time Temperature Precipitation Wind Pressure Humidity
00:00 +26°C° 0 mm 1 mps 734 mmHg 78%
01:00 +26°C° 0 mm 1 mps 734 mmHg 79%
02:00 +26°C° 0 mm 1 mps 733 mmHg 80%
03:00 +25°C° 0 mm 1 mps 732 mmHg 81%
04:00 +23°C° 0.1 mm 0 mps 733 mmHg 84%
05:00 +23°C° 0.1 mm 0 mps 733 mmHg 86%
06:00 +22°C° 0.1 mm 0 mps 733 mmHg 89%
07:00 +25°C° 0.4 mm 1 mps 734 mmHg 87%
08:00 +26°C° 0.4 mm 1 mps 734 mmHg 86%
09:00 +27°C° 0.4 mm 1 mps 735 mmHg 85%
10:00 +28°C° 2.2 mm 1 mps 734 mmHg 82%
11:00 +29°C° 2.2 mm 1 mps 734 mmHg 79%
12:00 +30°C° 2.2 mm 1 mps 733 mmHg 76%
13:00 +30°C° 1.1 mm 1 mps 733 mmHg 79%
14:00 +29°C° 1.1 mm 1 mps 732 mmHg 82%
15:00 +28°C° 1.1 mm 1 mps 732 mmHg 85%
16:00 +28°C° 0 mm 1 mps 732 mmHg 86%
17:00 +27°C° 0 mm 1 mps 732 mmHg 88%
18:00 +25°C° 0 mm 0 mps 732 mmHg 89%
19:00 +24°C° 0 mm 0 mps 733 mmHg 89%
20:00 +24°C° 0 mm 0 mps 733 mmHg 90%
21:00 +23°C° 0 mm 0 mps 734 mmHg 90%
22:00 +23°C° 0 mm 0 mps 734 mmHg 90%
23:00 +23°C° 0 mm 0 mps 734 mmHg 90%

Day after tomorrow, 24 September, Thursday

Time Temperature Precipitation Wind Pressure Humidity
00:00 +23°C° 0 mm 0 mps 734 mmHg 90%
01:00 +23°C° 0 mm 0 mps 734 mmHg 90%
02:00 +23°C° 0 mm 0 mps 733 mmHg 89%
03:00 +25°C° 0 mm 1 mps 733 mmHg 89%
04:00 +24°C° 0 mm 1 mps 733 mmHg 90%
05:00 +24°C° 0 mm 1 mps 734 mmHg 92%
06:00 +24°C° 0 mm 1 mps 734 mmHg 94%
07:00 +25°C° 0 mm 1 mps 734 mmHg 90%
08:00 +26°C° 0 mm 2 mps 735 mmHg 87%
09:00 +28°C° 0 mm 2 mps 735 mmHg 83%
10:00 +29°C° 0 mm 2 mps 735 mmHg 78%
11:00 +30°C° 0 mm 2 mps 734 mmHg 72%
12:00 +32°C° 0 mm 2 mps 734 mmHg 66%
13:00 +32°C° 0 mm 2 mps 733 mmHg 64%
14:00 +34°C° 0 mm 2 mps 733 mmHg 61%
15:00 +33°C° 0 mm 1 mps 732 mmHg 59%
16:00 +32°C° 0 mm 1 mps 732 mmHg 65%
17:00 +31°C° 0 mm 1 mps 732 mmHg 70%
18:00 +29°C° 0 mm 1 mps 732 mmHg 76%
19:00 +27°C° 0 mm 0 mps 733 mmHg 78%
20:00 +26°C° 0 mm 0 mps 733 mmHg 80%
21:00 +25°C° 0 mm 0 mps 734 mmHg 81%
22:00 +25°C° 0.4 mm 0 mps 734 mmHg 84%
23:00 +26°C° 0.4 mm 1 mps 734 mmHg 86%

25 September, Friday

Time Temperature Precipitation Wind Pressure Humidity
00:00 +26°C° 0.4 mm 1 mps 734 mmHg 89%
01:00 +26°C° 0.7 mm 1 mps 734 mmHg 91%
02:00 +25°C° 0.7 mm 1 mps 733 mmHg 93%
03:00 +25°C° 0.7 mm 1 mps 733 mmHg 95%
04:00 +25°C° 0 mm 1 mps 733 mmHg 96%
05:00 +25°C° 0 mm 1 mps 733 mmHg 96%
06:00 +25°C° 0 mm 1 mps 734 mmHg 96%
07:00 +26°C° 0 mm 1 mps 734 mmHg 92%
08:00 +27°C° 0 mm 2 mps 735 mmHg 87%
09:00 +29°C° 0 mm 2 mps 735 mmHg 83%
10:00 +30°C° 0 mm 2 mps 735 mmHg 76%
11:00 +32°C° 0 mm 2 mps 734 mmHg 69%
12:00 +33°C° 0 mm 1 mps 734 mmHg 62%
13:00 +34°C° 0.1 mm 1 mps 733 mmHg 60%
14:00 +34°C° 0.1 mm 1 mps 733 mmHg 58%
15:00 +33°C° 0.1 mm 0 mps 732 mmHg 56%
16:00 +31°C° 0.4 mm 0 mps 732 mmHg 62%
17:00 +29°C° 0.4 mm 0 mps 732 mmHg 68%
18:00 +28°C° 0.4 mm 0 mps 732 mmHg 75%
19:00 +27°C° 1 mm 0 mps 733 mmHg 79%
20:00 +28°C° 1 mm 1 mps 733 mmHg 83%
21:00 +27°C° 1 mm 1 mps 734 mmHg 87%
22:00 +26°C° 1.7 mm 1 mps 734 mmHg 88%
23:00 +26°C° 1.7 mm 1 mps 734 mmHg 88%

26 September, Saturday

Time Temperature Precipitation Wind Pressure Humidity
00:00 +26°C° 1.7 mm 1 mps 734 mmHg 89%
01:00 +26°C° 0 mm 1 mps 733 mmHg 89%
02:00 +25°C° 0 mm 1 mps 732 mmHg 88%
03:00 +25°C° 0 mm 2 mps 732 mmHg 88%
04:00 +25°C° 0 mm 2 mps 732 mmHg 88%
05:00 +25°C° 0 mm 1 mps 732 mmHg 87%
06:00 +24°C° 0 mm 1 mps 732 mmHg 87%
07:00 +25°C° 0 mm 2 mps 732 mmHg 86%
08:00 +26°C° 0 mm 2 mps 733 mmHg 85%
09:00 +27°C° 0 mm 3 mps 733 mmHg 84%
10:00 +28°C° 0.2 mm 3 mps 733 mmHg 80%
11:00 +29°C° 0.2 mm 3 mps 733 mmHg 76%
12:00 +31°C° 0.2 mm 3 mps 733 mmHg 73%
13:00 +31°C° 0.3 mm 3 mps 732 mmHg 70%
14:00 +31°C° 0.3 mm 2 mps 732 mmHg 67%
15:00 +32°C° 0.3 mm 2 mps 731 mmHg 64%
16:00 +31°C° 0.3 mm 2 mps 731 mmHg 70%
17:00 +30°C° 0.3 mm 1 mps 731 mmHg 75%
18:00 +29°C° 0.3 mm 1 mps 731 mmHg 80%
19:00 +28°C° 0.6 mm 1 mps 732 mmHg 83%
20:00 +27°C° 0.6 mm 1 mps 732 mmHg 86%
21:00 +26°C° 0.6 mm 1 mps 733 mmHg 89%
22:00 +26°C° 0.3 mm 1 mps 733 mmHg 90%
23:00 +26°C° 0.3 mm 1 mps 733 mmHg 92%

27 September, Sunday

Time Temperature Precipitation Wind Pressure Humidity
00:00 +25°C° 0.3 mm 1 mps 733 mmHg 93%
01:00 +25°C° 0 mm 1 mps 733 mmHg 94%
02:00 +25°C° 0 mm 1 mps 732 mmHg 94%
03:00 +25°C° 0 mm 1 mps 732 mmHg 95%
04:00 +24°C° 0 mm 1 mps 732 mmHg 95%
05:00 +24°C° 0 mm 1 mps 732 mmHg 96%
06:00 +24°C° 0 mm 1 mps 732 mmHg 96%
07:00 +25°C° 0 mm 1 mps 732 mmHg 92%
08:00 +26°C° 0 mm 2 mps 733 mmHg 87%
09:00 +27°C° 0 mm 2 mps 733 mmHg 83%
10:00 +28°C° 0 mm 2 mps 733 mmHg 78%
11:00 +30°C° 0 mm 2 mps 733 mmHg 72%
12:00 +31°C° 0 mm 3 mps 732 mmHg 67%
13:00 +32°C° 0 mm 2 mps 732 mmHg 64%
14:00 +32°C° 0 mm 2 mps 731 mmHg 62%
15:00 +34°C° 0 mm 2 mps 731 mmHg 59%
16:00 +31°C° 0 mm 1 mps 730 mmHg 64%
17:00 +30°C° 0 mm 1 mps 730 mmHg 70%
18:00 +29°C° 0 mm 1 mps 730 mmHg 75%
19:00 +26°C° 0 mm 0 mps 731 mmHg 76%
20:00 +26°C° 0 mm 0 mps 732 mmHg 77%
21:00 +25°C° 0 mm 0 mps 732 mmHg 78%
22:00 +25°C° 0.1 mm 0 mps 732 mmHg 78%
23:00 +24°C° 0.1 mm 0 mps 732 mmHg 79%
Show more